When you browse on this site, cookies collect data to enhance your experience and personalize the content and advertising you see.
Visit our Privacy Policy to learn more. By continuing to use the site, you agree to this use of cookies and data.
  • In Schweiz
  • Länderverzeichnis
  • Für 7 Tage
  • Wassertemperatur
  • Wetterkarte
  • Widgets
  • user-avatar
    Anmelden

    Stündliche Wetter Nürtingen

    Heute, 31 Mai, Sonntag

    Zeit Temperatur Niederschläge Wind Luftdruck Luftfeuchtigkeit
    00:00 +9°C° 0 mm 2 m/S 740 mmHg 81%
    01:00 +8°C° 0 mm 2 m/S 740 mmHg 83%
    02:00 +9°C° 0 mm 1 m/S 740 mmHg 85%
    03:00 +8°C° 0 mm 1 m/S 740 mmHg 86%
    04:00 +8°C° 0 mm 1 m/S 740 mmHg 87%
    05:00 +9°C° 0 mm 1 m/S 740 mmHg 82%
    06:00 +11°C° 0 mm 1 m/S 740 mmHg 77%
    07:00 +12°C° 0 mm 1 m/S 739 mmHg 72%
    08:00 +14°C° 0 mm 2 m/S 739 mmHg 67%
    09:00 +14°C° 0 mm 3 m/S 740 mmHg 61%
    10:00 +16°C° 0 mm 3 m/S 740 mmHg 56%
    11:00 +17°C° 0 mm 3 m/S 740 mmHg 55%
    12:00 +18°C° 0 mm 4 m/S 739 mmHg 53%
    13:00 +19°C° 0 mm 4 m/S 739 mmHg 52%
    14:00 +19°C° 0 mm 4 m/S 739 mmHg 53%
    15:00 +19°C° 0 mm 4 m/S 739 mmHg 55%
    16:00 +19°C° 0 mm 4 m/S 739 mmHg 56%
    17:00 +18°C° 0 mm 3 m/S 740 mmHg 61%
    18:00 +17°C° 0 mm 3 m/S 740 mmHg 66%
    19:00 +16°C° 0 mm 3 m/S 740 mmHg 71%
    20:00 +14°C° 0 mm 3 m/S 740 mmHg 74%
    21:00 +13°C° 0 mm 3 m/S 740 mmHg 78%
    22:00 +11°C° 0 mm 4 m/S 741 mmHg 81%
    23:00 +11°C° 0 mm 3 m/S 741 mmHg 82%

    Morgen, 1 Juni, Montag

    Zeit Temperatur Niederschläge Wind Luftdruck Luftfeuchtigkeit
    00:00 +10°C° 0 mm 3 m/S 740 mmHg 83%
    01:00 +9°C° 0 mm 3 m/S 740 mmHg 84%
    02:00 +9°C° 0 mm 2 m/S 740 mmHg 85%
    03:00 +8°C° 0 mm 2 m/S 740 mmHg 87%
    04:00 +8°C° 0 mm 2 m/S 740 mmHg 88%
    05:00 +10°C° 0 mm 2 m/S 740 mmHg 84%
    06:00 +11°C° 0 mm 3 m/S 740 mmHg 81%
    07:00 +12°C° 0 mm 3 m/S 740 mmHg 77%
    08:00 +14°C° 0 mm 4 m/S 740 mmHg 71%
    09:00 +17°C° 0 mm 4 m/S 740 mmHg 66%
    10:00 +19°C° 0 mm 5 m/S 740 mmHg 60%
    11:00 +20°C° 0 mm 5 m/S 740 mmHg 58%
    12:00 +21°C° 0 mm 5 m/S 740 mmHg 57%
    13:00 +22°C° 0 mm 5 m/S 739 mmHg 55%
    14:00 +22°C° 0 mm 5 m/S 739 mmHg 55%
    15:00 +22°C° 0 mm 5 m/S 739 mmHg 56%
    16:00 +22°C° 0 mm 4 m/S 739 mmHg 56%
    17:00 +21°C° 0 mm 4 m/S 739 mmHg 62%
    18:00 +20°C° 0 mm 3 m/S 739 mmHg 67%
    19:00 +19°C° 0 mm 3 m/S 739 mmHg 73%
    20:00 +18°C° 0 mm 3 m/S 739 mmHg 76%
    21:00 +16°C° 0 mm 3 m/S 739 mmHg 79%
    22:00 +15°C° 0 mm 2 m/S 739 mmHg 82%
    23:00 +14°C° 0 mm 2 m/S 739 mmHg 84%

    übermorgen, 2 Juni, Dienstag

    Zeit Temperatur Niederschläge Wind Luftdruck Luftfeuchtigkeit
    00:00 +13°C° 0 mm 2 m/S 739 mmHg 85%
    01:00 +12°C° 0 mm 2 m/S 739 mmHg 87%
    02:00 +12°C° 0 mm 2 m/S 739 mmHg 88%
    03:00 +12°C° 0 mm 2 m/S 739 mmHg 90%
    04:00 +10°C° 0 mm 2 m/S 739 mmHg 91%
    05:00 +12°C° 0 mm 2 m/S 739 mmHg 86%
    06:00 +14°C° 0 mm 2 m/S 738 mmHg 81%
    07:00 +15°C° 0 mm 2 m/S 738 mmHg 76%
    08:00 +17°C° 0 mm 3 m/S 738 mmHg 71%
    09:00 +18°C° 0 mm 4 m/S 738 mmHg 66%
    10:00 +20°C° 0 mm 4 m/S 738 mmHg 60%
    11:00 +21°C° 0 mm 4 m/S 737 mmHg 58%
    12:00 +22°C° 0 mm 4 m/S 737 mmHg 56%
    13:00 +23°C° 0 mm 4 m/S 737 mmHg 55%
    14:00 +23°C° 0 mm 4 m/S 736 mmHg 55%
    15:00 +23°C° 0 mm 4 m/S 736 mmHg 56%
    16:00 +23°C° 0 mm 4 m/S 735 mmHg 56%
    17:00 +21°C° 0 mm 4 m/S 735 mmHg 61%
    18:00 +20°C° 0 mm 3 m/S 734 mmHg 66%
    19:00 +19°C° 0 mm 3 m/S 734 mmHg 70%
    20:00 +17°C° 0 mm 2 m/S 734 mmHg 74%
    21:00 +16°C° 0 mm 2 m/S 734 mmHg 78%
    22:00 +14°C° 0 mm 2 m/S 734 mmHg 82%
    23:00 +14°C° 0 mm 1 m/S 734 mmHg 84%

    3 Juni, Mittwoch

    Zeit Temperatur Niederschläge Wind Luftdruck Luftfeuchtigkeit
    00:00 +13°C° 0 mm 1 m/S 734 mmHg 86%
    01:00 +12°C° 0 mm 1 m/S 733 mmHg 88%
    02:00 +12°C° 0 mm 1 m/S 733 mmHg 89%
    03:00 +11°C° 0 mm 1 m/S 733 mmHg 90%
    04:00 +11°C° 0 mm 1 m/S 733 mmHg 91%
    05:00 +12°C° 0 mm 1 m/S 733 mmHg 86%
    06:00 +14°C° 0 mm 1 m/S 733 mmHg 81%
    07:00 +15°C° 0 mm 2 m/S 733 mmHg 76%
    08:00 +17°C° 0 mm 2 m/S 732 mmHg 70%
    09:00 +19°C° 0 mm 3 m/S 732 mmHg 64%
    10:00 +20°C° 0 mm 3 m/S 732 mmHg 58%
    11:00 +22°C° 0 mm 3 m/S 732 mmHg 55%
    12:00 +24°C° 0 mm 3 m/S 732 mmHg 53%
    13:00 +25°C° 0 mm 4 m/S 732 mmHg 51%
    14:00 +25°C° 0 mm 3 m/S 731 mmHg 52%
    15:00 +25°C° 0 mm 3 m/S 731 mmHg 53%
    16:00 +25°C° 0 mm 3 m/S 731 mmHg 54%
    17:00 +24°C° 0 mm 3 m/S 731 mmHg 60%
    18:00 +22°C° 0 mm 3 m/S 731 mmHg 66%
    19:00 +21°C° 0 mm 2 m/S 730 mmHg 72%
    20:00 +19°C° 0 mm 2 m/S 731 mmHg 75%
    21:00 +18°C° 0 mm 2 m/S 731 mmHg 77%
    22:00 +16°C° 0 mm 2 m/S 731 mmHg 80%
    23:00 +15°C° 0 mm 2 m/S 731 mmHg 80%

    4 Juni, Donnerstag

    Zeit Temperatur Niederschläge Wind Luftdruck Luftfeuchtigkeit
    00:00 +15°C° 0 mm 1 m/S 731 mmHg 81%
    01:00 +15°C° 0 mm 1 m/S 731 mmHg 81%
    02:00 +14°C° 0 mm 1 m/S 731 mmHg 82%
    03:00 +14°C° 0 mm 1 m/S 731 mmHg 83%
    04:00 +13°C° 0 mm 1 m/S 731 mmHg 84%
    05:00 +15°C° 0 mm 1 m/S 731 mmHg 80%
    06:00 +16°C° 0 mm 1 m/S 731 mmHg 76%
    07:00 +19°C° 0 mm 1 m/S 732 mmHg 73%
    08:00 +20°C° 0.1 mm 1 m/S 732 mmHg 72%
    09:00 +20°C° 0.1 mm 2 m/S 732 mmHg 72%
    10:00 +21°C° 0.1 mm 2 m/S 732 mmHg 71%
    11:00 +23°C° 0.2 mm 1 m/S 732 mmHg 68%
    12:00 +24°C° 0.2 mm 1 m/S 732 mmHg 65%
    13:00 +23°C° 0.2 mm 0 m/S 732 mmHg 62%
    14:00 +23°C° 0.4 mm 0 m/S 732 mmHg 66%
    15:00 +22°C° 0.4 mm 0 m/S 731 mmHg 69%
    16:00 +22°C° 0.4 mm 0 m/S 731 mmHg 73%
    17:00 +23°C° 0.2 mm 1 m/S 731 mmHg 76%
    18:00 +23°C° 0.2 mm 1 m/S 731 mmHg 79%
    19:00 +22°C° 0.2 mm 1 m/S 731 mmHg 82%
    20:00 +21°C° 0.2 mm 1 m/S 731 mmHg 84%
    21:00 +20°C° 0.2 mm 1 m/S 731 mmHg 86%
    22:00 +19°C° 0.2 mm 1 m/S 731 mmHg 88%
    23:00 +19°C° 0 mm 1 m/S 731 mmHg 89%

    5 Juni, Freitag

    Zeit Temperatur Niederschläge Wind Luftdruck Luftfeuchtigkeit
    00:00 +17°C° 0 mm 2 m/S 731 mmHg 89%
    01:00 +17°C° 0 mm 2 m/S 731 mmHg 89%
    02:00 +16°C° 0 mm 1 m/S 731 mmHg 90%
    03:00 +16°C° 0 mm 1 m/S 731 mmHg 90%
    04:00 +16°C° 0 mm 1 m/S 730 mmHg 90%
    05:00 +18°C° 0.1 mm 1 m/S 730 mmHg 89%
    06:00 +19°C° 0.1 mm 1 m/S 731 mmHg 88%
    07:00 +20°C° 0.1 mm 1 m/S 731 mmHg 86%
    08:00 +21°C° 0.1 mm 2 m/S 730 mmHg 79%
    09:00 +24°C° 0.1 mm 2 m/S 730 mmHg 72%
    10:00 +26°C° 0.1 mm 3 m/S 730 mmHg 64%
    11:00 +27°C° 0.3 mm 3 m/S 730 mmHg 62%
    12:00 +27°C° 0.3 mm 3 m/S 730 mmHg 60%
    13:00 +28°C° 0.3 mm 3 m/S 730 mmHg 58%
    14:00 +28°C° 0.3 mm 3 m/S 729 mmHg 58%
    15:00 +28°C° 0.3 mm 4 m/S 729 mmHg 59%
    16:00 +28°C° 0.3 mm 4 m/S 729 mmHg 59%
    17:00 +27°C° 0.4 mm 3 m/S 729 mmHg 66%
    18:00 +26°C° 0.4 mm 2 m/S 729 mmHg 72%
    19:00 +24°C° 0.4 mm 2 m/S 730 mmHg 79%
    20:00 +23°C° 0.1 mm 1 m/S 730 mmHg 82%
    21:00 +21°C° 0.1 mm 1 m/S 730 mmHg 84%
    22:00 +18°C° 0.1 mm 0 m/S 730 mmHg 87%
    23:00 +20°C° 0.4 mm 1 m/S 731 mmHg 88%
    Mehr zeigen